This demonstration page uses our WeatherBlox Daily Observations layout. Learn more.

Left ArrowRight Arrow

31.31129, -92.44514

Hourly Observations for October 25, 2015

Temp ( °F °C ) Dew Point ( °F °C ) Humidity (%) Winds ( mph kmh ) Pressure ( in mb ) Visibility ( mi km ) Precip ( " mm )
12:37 am 00:37 Cloudy with Light Rain 70 21.1 69 20.6 97 97 E 12 19 29.97 1015 6 10 0.03 0.76
12:53 am 00:53 Cloudy with Rain 69 20.6 69 20.6 100 100 E 10 17 29.96 1015 4 6 0.06 1.52
1:08 am 01:08 Cloudy with Rain 69 20.6 68 20 96 96 E 10 17 29.97 1015 5 8 0.01 0.25
1:36 am 01:36 Cloudy with Rain 69 20.6 68 20 96 96 E 9 15 29.97 1015 4 6 0.06 1.52
1:51 am 01:51 Cloudy with Rain 70 21 68 20 94 94 E 8 13 29.97 1015 5 8 0.09 2.29
1:53 am 01:53 Cloudy with Rain 69 20.6 68 20 96 96 E 8 13 29.97 1015 5 8 0.09 2.29
2:21 am 02:21 Cloudy with Heavy Rain 68 20 68 20 100 100 E 12 19 29.97 1015 3 5 0.08 2.03
2:26 am 02:26 Cloudy with Heavy Rain 68 20 68 20 100 100 E 12 19 29.97 1015 3 4 0.10 2.54
2:29 am 02:29 Cloudy with Heavy Rain 68 20 68 20 100 100 E 10 17 29.97 1015 3 5 0.11 2.79
2:48 am 02:48 Cloudy with Heavy Rain 68 20 68 20 100 100 E 15 24 29.97 1015 3 5 0.19 4.83
2:53 am 02:53 Cloudy with Heavy Rain 68 20 67 19.4 96 96 E 12 19 29.97 1015 3 5 0.20 5.08
3:10 am 03:10 Cloudy with Heavy Rain 68 20 67 19.4 96 96 E 9 15 29.97 1015 3 4 0.08 2.03
3:21 am 03:21 Cloudy with Heavy Rain 67 19.4 67 19.4 100 100 E 12 19 29.94 1014 3 5 0.12 3.05
3:29 am 03:29 Cloudy with Heavy Rain 67 19.4 67 19.4 100 100 E 9 15 29.94 1014 2 3 0.20 5.08
3:44 am 03:44 Cloudy with Heavy Rain 67 19.4 67 19.4 100 100 E 8 13 29.94 1014 3 5 0.26 6.60
3:53 am 03:53 Cloudy with Rain 67 19.4 67 19.4 100 100 E 12 19 29.95 1014 4 6 0.29 7.37
4:53 am 04:53 Cloudy with Rain 66 18.9 65 18.3 96 96 ENE 12 19 29.94 1014 5 8 0.12 3.05
5:08 am 05:08 Cloudy with Rain 65 18.3 64 17.8 97 97 E 14 22 29.91 1013 6 10 0.02 0.51
5:53 am 05:53 Mostly Cloudy with Light Rain 64 17.8 64 17.8 100 100 ENE 10 17 29.94 1014 10 16 0.05 1.27
6:53 am 06:53 Partly Cloudy with Light Rain 64 17.8 62 16.7 93 93 ENE 8 13 29.95 1014 10 16 0.02 0.51
7:53 am 07:53 Cloudy with Rain 62 16.7 61 16.1 96 96 ENE 9 15 29.96 1014 6 10 0.08 2.03
8:32 am 08:32 Cloudy with Light Rain 62 16.7 61 16.1 96 96 NE 9 15 29.94 1014 7 11 0.02 0.51
8:53 am 08:53 Cloudy with Light Rain 62 16.7 61 16.1 96 96 NE 12 19 29.96 1015 8 13 0.03 0.76
9:26 am 09:26 Cloudy with Heavy Rain 62 16.7 61 16.1 96 96 NE 9 15 29.97 1015 3 5 0.05 1.27
9:53 am 09:53 Cloudy with Rain 62 16.7 62 16.7 100 100 NE 10 17 29.97 1015 3 5 0.08 2.03
9:57 am 09:57 Cloudy with Heavy Rain 62 16.7 61 16.1 96 96 NE 13 20 29.97 1015 3 4 0.01 0.25
10:01 am 10:01 Cloudy with Heavy Rain 62 16.7 61 16.1 96 96 NE 14 22 29.97 1015 2 3 0.02 0.51
10:13 am 10:13 Cloudy with Rain 62 16.7 61 16.1 96 96 NE 13 20 29.97 1015 2 3 0.05 1.27
10:25 am 10:25 Cloudy with Light Rain 62 16.7 61 16.1 96 96 NE 9 15 29.97 1015 4 6 0.06 1.52
10:42 am 10:42 Cloudy with Rain 62 16.7 62 16.7 100 100 NE 10 17 29.97 1015 4 6 0.08 2.03
10:53 am 10:53 Cloudy with Rain 62 16.7 62 16.7 100 100 NE 13 20 29.96 1015 4 6 0.10 2.54
11:44 am 11:44 Cloudy with Rain 62 16.7 62 16.7 100 100 NNE 6 9 29.94 1014 4 6 0.03 0.76
11:53 am 11:53 Cloudy with Heavy Rain 62 16.7 62 16.7 100 100 NNE 13 20 29.96 1014 3 5 0.06 1.52
12:00 pm 12:00 Cloudy with Heavy Rain 62 16.7 62 16.7 100 100 NE 9 15 29.94 1014 2 3 0.03 0.76
12:14 pm 12:14 Cloudy with Heavy Rain 62 16.7 62 16.7 100 100 NNE 8 13 29.94 1014 2 3 0.11 2.79
12:46 pm 12:46 Cloudy with Rain 61 16.1 61 16.1 100 100 NNE 10 17 29.91 1013 3 5 0.24 6.10
12:53 pm 12:53 Cloudy with Rain 61 16.1 61 16.1 100 100 NNE 14 22 29.90 1012 4 6 0.25 6.35
1:53 pm 13:53 Cloudy with Rain 62 16.7 61 16.1 96 96 NE 12 19 29.87 1011 4 6 0.12 3.05
2:31 pm 14:31 Cloudy with Rain 62 16.7 62 16.7 100 100 NNE 13 20 29.83 1010 3 5 0.10 2.54
2:47 pm 14:47 Cloudy with Heavy Rain 63 17 63 17 100 100 NNE 12 19 29.83 1010 3 4 0.14 3.56
2:53 pm 14:53 Cloudy with Rain 62 16.7 62 16.7 100 100 NNE 10 17 29.83 1010 3 4 0.15 3.81
3:04 pm 15:04 Cloudy with Rain 62 16.7 62 16.7 100 100 NNE 12 19 29.83 1010 3 5 0.02 0.51
3:14 pm 15:14 Cloudy with Heavy Rain 62 16.7 62 16.7 100 100 NNE 14 22 29.80 1009 2 3 0.06 1.52
3:42 pm 15:42 Cloudy with Heavy Rain 62 16.7 62 16.7 100 100 NNE 15 24 29.80 1009 2 3 0.20 5.08
3:49 pm 15:49 Cloudy with Heavy Rain 62 16.7 62 16.7 100 100 NNE 16 26 29.80 1009 1 2 0.26 6.60
3:56 pm 15:56 Cloudy with Heavy Rain 62 16.7 62 16.7 100 100 NNE 12 19 29.80 1009 1 2 0.04 1.02
4:28 pm 16:28 Cloudy with Heavy Rain 62 16.7 62 16.7 100 100 NNE 14 22 29.77 1008 2 2 0.28 7.11
4:53 pm 16:53 Cloudy with Heavy Rain 62 16.7 62 16.7 100 100 N 16 26 29.78 1008 2 3 0.43 10.92
5:09 pm 17:09 Cloudy with Heavy Rain 62 16.7 62 16.7 100 100 N 17 28 29.77 1008 2 3 0.07 1.78
5:16 pm 17:16 Cloudy with Heavy Rain 62 16.7 62 16.7 100 100 NNE 16 26 29.77 1008 1 1 0.21 5.33
5:24 pm 17:24 Cloudy with Heavy Rain 62 16.7 62 16.7 100 100 NNE 15 24 29.74 1007 1 1 0.33 8.38
5:38 pm 17:38 Mostly Cloudy with Heavy Rain 62 16.7 62 16.7 100 100 N 17 28 29.77 1008 1 2 0.43 10.92
5:53 pm 17:53 Cloudy with Heavy Rain 62 16.7 62 16.7 100 100 NNE 16 26 29.77 1008 1 2 0.60 15.24
6:18 pm 18:18 Cloudy with Heavy Rain 62 16.7 62 16.7 100 100 NNE 14 22 29.74 1007 3 4 0.10 2.54
6:34 pm 18:34 Cloudy with Rain 62 16.7 62 16.7 100 100 NNE 17 28 29.74 1007 3 5 0.13 3.30
6:46 pm 18:46 Cloudy with Rain 62 16.7 62 16.7 100 100 NNE 17 28 29.74 1007 3 4 0.15 3.81
6:53 pm 18:53 Cloudy with Heavy Rain 62 16.7 62 16.7 100 100 NNE 16 26 29.75 1007 2 3 0.19 4.83
7:00 pm 19:00 Cloudy with Heavy Rain 62 16.7 62 16.7 100 100 NNE 17 28 29.71 1006 1 2 0.11 2.79
7:10 pm 19:10 Cloudy with Heavy Rain 62 16.7 62 16.7 100 100 NNE 18 30 29.74 1007 2 3 0.16 4.06
7:35 pm 19:35 Cloudy with Heavy Rain 62 16.7 62 16.7 100 100 NNE 16 26 29.71 1006 2 3 0.26 6.60
7:51 pm 19:51 Cloudy with Rain 63 17 63 17 100 100 NNE 17 28 29.71 1006 3 4 0.30 7.62
7:53 pm 19:53 Cloudy with Rain 62 16.7 62 16.7 100 100 NNE 17 28 29.72 1006 3 4 0.30 7.62
8:20 pm 20:20 Cloudy with Rain 63 17.2 63 17.2 100 100 NNE 17 28 29.71 1006 3 4 0.04 1.02
8:30 pm 20:30 Cloudy with Rain 63 17.2 63 17.2 100 100 NNE 20 31 29.68 1005 3 4 0.06 1.52
8:53 pm 20:53 Cloudy with Light Rain 64 17.8 63 17.2 96 96 NNE 17 28 29.71 1006 3 4 0.08 2.03
9:00 pm 21:00 Cloudy with Heavy Rain 64 17.8 63 17.2 96 96 NNE 16 26 29.71 1006 3 5 0.01 0.25
9:08 pm 21:08 Cloudy with Rain 64 17.8 63 17.2 96 96 NNE 18 30 29.71 1006 3 4 0.03 0.76
9:15 pm 21:15 Cloudy with Rain 64 17.8 63 17.2 96 96 NE 17 28 29.71 1006 3 5 0.05 1.27
9:22 pm 21:22 Cloudy with Rain 64 17.8 63 17.2 96 96 NNE 18 30 29.71 1006 3 4 0.06 1.52
9:25 pm 21:25 Cloudy with Rain 64 17.8 63 17.2 96 96 NNE 20 31 29.71 1006 3 5 0.07 1.78
9:39 pm 21:39 Cloudy with Rain 64 17.8 63 17.2 96 96 NNE 20 31 29.71 1006 3 4 0.08 2.03
9:53 pm 21:53 Cloudy with Light Rain 64 17.8 63 17.2 96 96 NE 20 31 29.71 1006 3 4 0.09 2.29
10:00 pm 22:00 Cloudy with Heavy Rain 64 17.8 63 17.2 96 96 NE 21 33 29.68 1005 3 5 0.03 0.76
10:03 pm 22:03 Cloudy with Strong Thunderstorms 64 17.8 63 17.2 96 96 NE 22 35 29.68 1005 3 4 0.05 1.27
10:28 pm 22:28 Cloudy with Nearby Thunderstorms 64 17.8 63 17.2 96 96 NNE 14 22 29.68 1005 5 8 0.19 4.83
10:39 pm 22:39 Cloudy with Light Rain 64 17.8 63 17.2 96 96 NNE 17 28 29.68 1005 5 8 0.20 5.08
10:53 pm 22:53 Cloudy with Rain 64 17.8 63 17.2 96 96 NNE 17 28 29.70 1006 4 6 0.22 5.59
11:27 pm 23:27 Cloudy with Heavy Rain 64 17.8 63 17.2 96 96 NNE 18 30 29.68 1005 2 3 0.09 2.29
11:53 pm 23:53 Cloudy with Light Rain 64 17.8 63 17.2 96 96 NNE 20 31 29.68 1005 3 4 0.10 2.54

Powered by AerisWeather